Weather History for KEKN - July, 2012

Change the Weather History Date:

Wednesday, July 11, 2012

  Actual Average Record
Temperature  
Mean Temperature 70 °F 70 °F  
Max Temperature 84 °F 81 °F 91 °F (1993)
Min Temperature 56 °F 59 °F 44 °F (1963)
Degree Days  
Heating Degree Days 0 0  
Month to date heating degree days 0 8  
Since 1 June heating degree days 70 63  
Since 1 July heating degree days 0 8  
Cooling Degree Days 5 5  
Month to date cooling degree days 124 55  
Year to date cooling degree days 287 170  
Since 1 June cooling degree days 224 147  
Growing Degree Days 20 (Base 50)    
Moisture  
Dew Point 57 °F    
Average Humidity 65    
Maximum Humidity 93    
Minimum Humidity 37    
Precipitation  
Precipitation 0.00 in 0.18 in 0.90 in (1969)
Month to date precipitation 1.25 1.95  
Year to date precipitation 21.29 25.56  
Snow  
Snow 0.00 in - - ()
Month to date snowfall 0.0  
Since 1 September snowfall 30.6  
Snow Depth 0.00 in    
Sea Level Pressure  
Sea Level Pressure 30.15 in    
Wind  
Wind Speed 2 mph (SE)    
Max Wind Speed 12 mph    
Max Gust Speed 16 mph    
Visibility 7 miles    
Events Fog    
T = Trace of Precipitation, MM = Missing Value Source: NWS Daily Summary

Daily Weather History Graph

Daily Weather History Graph

Search for Another Location

Airport or City:

Trip Planner

Search our weather history database for the weather conditions in past years. The results will help you decide how hot, cold, wet, or windy it might be!

Date:

Astronomy

Jul. 11, 2012 Rise Set
Actual Time 6:03 AM EDT 8:45 PM EDT
Civil Twilight 5:32 AM EDT 9:17 PM EDT
Nautical Twilight 4:53 AM EDT 9:56 PM EDT
Astronomical Twilight 4:09 AM EDT 10:40 PM EDT
Moon 12:35 AM EDT (7/11) 2:20 PM EDT (7/11)
Length of Visible Light 15h 44m
Length of Day
14h 41m
Last Quarter, 44% of the Moon is Illuminated
Jul 11
Last Quarter
Jul 19
New
Jul 26
First Quarter
Aug 1
Full
Aug 9
Last Quarter

Hourly Weather History & Observations

Time (EDT) Temp. Heat Index Dew Point Humidity Pressure Visibility Wind Dir Wind Speed Gust Speed Precip Events Conditions
12:51 AM 62.1 °F - 59.0 °F 90% 30.11 in 10.0 mi Calm Calm - N/A   Clear
1:51 AM 61.0 °F - 57.9 °F 90% 30.11 in 8.0 mi Calm Calm - N/A   Clear
2:51 AM 60.1 °F - 57.9 °F 93% 30.11 in 7.0 mi Calm Calm - N/A   Clear
3:51 AM 59.0 °F - 57.0 °F 93% 30.12 in 4.0 mi Calm Calm - N/A   Clear
4:51 AM 57.9 °F - 55.9 °F 93% 30.12 in 3.0 mi Calm Calm - N/A   Clear
5:17 AM 57.2 °F - 55.4 °F 94% 30.16 in 2.0 mi Calm Calm - N/A   Clear
5:41 AM 57.2 °F - 55.4 °F 94% 30.16 in 3.0 mi Calm Calm - N/A   Clear
5:51 AM 57.0 °F - 55.9 °F 96% 30.14 in 3.0 mi Calm Calm - N/A   Clear
6:01 AM 57.2 °F - 55.4 °F 94% 30.17 in 2.5 mi Calm Calm - N/A   Scattered Clouds
6:08 AM 55.4 °F - 55.4 °F 100% 30.17 in 1.8 mi Calm Calm - N/A   Mostly Cloudy
6:27 AM 55.4 °F - 55.4 °F 100% 30.18 in 1.5 mi Calm Calm - N/A   Scattered Clouds
6:43 AM 57.2 °F - 55.4 °F 94% 30.18 in 0.8 mi Calm Calm - N/A   Mist
6:51 AM 57.9 °F - 55.9 °F 93% 30.16 in 0.2 mi Calm Calm - N/A Fog Fog
7:00 AM 57.2 °F - 57.2 °F 100% 30.18 in 1.0 mi Calm Calm - N/A   Mist
7:04 AM 59.0 °F - 57.2 °F 94% 30.18 in 2.0 mi Calm Calm - N/A   Partly Cloudy
7:14 AM 60.8 °F - 57.2 °F 88% 30.18 in 3.0 mi Calm Calm - N/A   Clear
7:51 AM 63.0 °F - 59.0 °F 87% 30.16 in 5.0 mi Calm Calm - N/A   Clear
8:51 AM 66.9 °F - 60.1 °F 79% 30.16 in 9.0 mi Calm Calm - N/A   Clear
9:51 AM 71.1 °F - 61.0 °F 70% 30.15 in 10.0 mi Calm Calm - N/A   Clear
10:51 AM 78.1 °F - 61.0 °F 56% 30.14 in 10.0 mi Calm Calm - N/A   Clear
11:51 AM 82.0 °F 81.2 °F 53.1 °F 37% 30.14 in 10.0 mi Calm Calm - N/A   Clear
12:51 PM 81.0 °F 80.4 °F 53.1 °F 38% 30.14 in 10.0 mi Variable 3.5 mph - N/A   Scattered Clouds
1:51 PM 82.0 °F 81.6 °F 55.9 °F 41% 30.14 in 10.0 mi SE 4.6 mph - N/A   Clear
2:51 PM 82.9 °F 82.1 °F 55.9 °F 39% 30.12 in 10.0 mi Variable 4.6 mph - N/A   Overcast
3:51 PM 84.0 °F 83.3 °F 57.0 °F 40% 30.11 in 10.0 mi SSE 8.1 mph - N/A   Partly Cloudy
4:51 PM 81.0 °F 81.1 °F 57.9 °F 45% 30.13 in 10.0 mi SSE 5.8 mph - N/A   Scattered Clouds
5:51 PM 80.1 °F 80.7 °F 59.0 °F 48% 30.12 in 10.0 mi SE 6.9 mph - N/A   Clear
6:51 PM 79.0 °F - 57.9 °F 48% 30.13 in 10.0 mi SSE 5.8 mph - N/A   Clear
7:51 PM 75.9 °F - 57.9 °F 54% 30.14 in 10.0 mi SSE 4.6 mph - N/A   Partly Cloudy
8:51 PM 70.0 °F - 60.1 °F 71% 30.15 in 10.0 mi SE 3.5 mph - N/A   Clear
9:51 PM 70.0 °F - 59.0 °F 68% 30.17 in 10.0 mi SE 4.6 mph - N/A   Partly Cloudy
10:51 PM 69.1 °F - 61.0 °F 75% 30.17 in 10.0 mi Calm Calm - N/A   Clear
11:51 PM 68.0 °F - 61.0 °F 78% 30.18 in 8.0 mi Calm Calm - N/A   Partly Cloudy